Location: Unspecified
(0.0000°N, 0.0000°E)
Time: 01:54:27
(UTC+00:00)

SRMSAT - Pass Details

Date: 08 December 2017
Orbit: 849 x 866 km, 20.0° (Epoch: 21 January)

Event Time Altitude Azimuth Distance (km) Brightness Sun altitude
Exits shadow 04:58:25 - 244° (WSW) 3,188 ? -12.3°
Reaches altitude 10° 05:00:21 10° 243° (WSW) 2,491 ? -11.9°
Maximum altitude 05:06:20 72° 159° (SSE) 904 ? -10.5°
Drops below altitude 10° 05:12:19 10° 75° (ENE) 2,491 ? -9.1°
Sets 05:14:54 0° 73° (ENE) 3,427 ? -8.5°
